Tracking 19476 objects as of 17-Jan-2019
HD Live streaming from Space Station
objects crossing your sky now

COSMOS 1959

Track COSMOS 1959 now!
10-day predictions
COSMOS 1959 is classified as:


NORAD ID: 19324
Int'l Code: 1988-062A
Perigee: 959.1 km
Apogee: 1,010.8 km
Inclination: 83.0 °
Period: 104.6 minutes
Semi major axis: 7355 km
RCS: 2.5206 m2 (large)
Launch date: July 18, 1988
Source: Commonwealth of Independent States (former USSR) (CIS)
Launch site: PLESETSK MISSILE AND SPACE COMPLEX (PKMTR)
aabbcc
Your satellite tracking list
Your tracking list is empty




NASA's NSSDC Master Catalog

Two Line Element Set (TLE):
1 19324U 88062A   19016.96456199 +.00000031 +00000-0 +15374-4 0  9997
2 19324 082.9521 330.9376 0035121 129.8539 293.9538 13.76090228531217
Source of the keplerian elements: AFSPC